Lid_Strength_Index
14 12 10 9 9 9 8 8 7 5 6 6 7 7 8 8 9 9 10 10 10 10 10 10 10 9 9
15 13 11 9 10 10 9 9 9 6 6 7 7 8 8 9 9 10 10 11 11 11 11 11 11 10 9
15 14 13 11 12 12 12 12 10 7 6 7 7 8 9 9 10 10 11 12 12 12 12 12 11 11 10
14 13 11 13 12 12 14 14 13 10 9 9 8 8 9 9 10 11 12 12 12 13 13 12 12 11 11
15 15 15 13 12 13 14 16 15 15 15 13 13 13 13 10 11 11 12 13 13 13 13 13 12 12 12
15 14 13 12 11 13 17 16 16 16 16 15 15 16 15 15 11 11 12 13 13 13 13 13 12 12 12
13 13 14 12 12 14 15 17 17 17 16 17 17 16 15 14 11 11 12 13 13 14 14 13 13 12 13
11 12 13 12 11 13 14 18 17 17 17 19 18 17 17 16 12 12 11 12 13 14 14 13 13 13 14
10 10 10 10 11 14 16 15 19 18 17 18 18 18 18 18 17 11 12 12 13 13 14 14 13 14 16
12 10 10 10 10 13 14 15 19 19 18 18 18 18 20 18 18 16 16 12 13 14 15 14 14 17 17
14 13 13 12 13 15 14 14 18 18 17 17 19 19 18 19 18 18 17 17 18 18 16 15 14 15 17
14 15 14 14 16 16 16 16 16 16 16 16 19 18 18 20 20 18 18 18 19 19 18 16 16 15 14
14 14 14 15 16 17 16 16 17 16 16 16 17 17 18 18 19 19 19 19 19 19 19 19 19 18 19
13 16 16 16 16 17 17 17 18 19 17 17 16 17 18 18 18 19 19 20 19 19 19 19 18 18 18
15 16 16 16 17 17 17 18 19 19 20 19 18 17 17 18 19 19 20 19 19 19 19 20 19 18 18
15 15 16 16 17 17 16 17 18 19 20 20 19 19 19 18 17 20 20 20 19 19 19 22 21 19 18
15 16 17 16 16 17 17 17 18 20 20 20 20 20 21 21 20 17 20 20 20 21 20 21 21 19 18